Content
SEND FEEDBACK

Daily
Averages
Monthly
Summary
United States of America

CARSON CITY, NEVADA


Home > North America > United States > Nevada
Elevation: 4742 feet     Latitude: 39 09N     Longitude: 119 46W

WEATHER
 
SELECT A DAY
Number of Records: 93,972;   Date Range: 7/14/10 - 9/20/14
 
SHARE

PRINT THIS DATA

[ ← Previous Day ]
WEATHER ALMANAC - FEBRUARY 22, 2013
[ Next Day → ]
[ °C ]   °F
Weather ElementAverageHighLow
Temperature39.7 °F53.6 °F (3:55 pm)23 °F (6:35 am)
Dewpoint15 °F24.8 °F (5:35 pm)10.4 °F (1:15 pm)
Humidity39.8 %68 % (6:35 am)18 % (4:15 pm)
Barometer30.14 in30.23 in (7:55 am)30.06 in (9:35 pm)
Wind Speed4.4 mph21.9 mph (8:15 pm)
Wind Gust34.5 mph (8:15 pm)
Weather ElementAverage
Visibility10 mi
Wind DirectionSSE (153.8 °)

Weather ElementTotal
Precipitation---
Heating Degree Days26.7 (Base 65)
Averaged from 69 records on February 22, 2013
WEATHER CONDITIONS BREAKOUT
WIND DIRECTION BREAKOUT
WEATHER BY HOUR - FEBRUARY 22, 2013
[ °C ]   °F
Local TimeTemperatureDewpointHumidityBarometerVisibilityWind DirectionWind SpeedGust SpeedPrecipitationEventsConditions
12:35 AM26.6 °F14.0 °F59 %30.13 in10.0 miNNW (330°)3.5 mphClear
12:55 AM28.4 °F12.2 °F51 %30.13 in10.0 miWest (280°)3.5 mphClear
1:15 AM28.4 °F12.2 °F51 %30.13 in10.0 miSW (220°)4.6 mphClear
1:35 AM26.6 °F14.0 °F59 %30.14 in10.0 miCalmClear
1:55 AM26.6 °F14.0 °F59 %30.14 in10.0 miCalmClear
2:15 AM26.6 °F14.0 °F59 %30.15 in10.0 miNW (320°)3.5 mphClear
2:35 AM26.6 °F14.0 °F59 %30.15 in10.0 miCalmClear
2:55 AM28.4 °F14.0 °F55 %30.16 in10.0 miCalmClear
3:15 AM26.6 °F14.0 °F59 %30.15 in10.0 miCalmClear
3:35 AM26.6 °F14.0 °F59 %30.14 in10.0 miEast (90°)3.5 mphClear
3:55 AM28.4 °F14.0 °F55 %30.14 in10.0 miCalmClear
4:15 AM26.6 °F14.0 °F59 %30.14 in10.0 miSW (220°)6.9 mphClear
4:55 AM26.6 °F12.2 °F55 %30.15 in10.0 miSW (230°)3.5 mphClear
5:15 AM26.6 °F12.2 °F55 %30.17 in10.0 miNW (310°)4.6 mphClear
5:55 AM24.8 °F12.2 °F59 %30.19 in10.0 miCalmClear
6:15 AM24.8 °F14.0 °F64 %30.19 in10.0 miCalmClear
6:35 AM23.0 °F14.0 °F68 %30.20 in10.0 miCalmClear
6:55 AM23.0 °F14.0 °F68 %30.20 in10.0 miCalmClear
7:15 AM23.0 °F14.0 °F68 %30.21 in10.0 miCalmClear
7:35 AM26.6 °F14.0 °F59 %30.22 in10.0 miCalmClear
7:55 AM26.6 °F14.0 °F59 %30.23 in10.0 miCalmClear
8:15 AM28.4 °F14.0 °F55 %30.23 in10.0 miCalmClear
8:35 AM32.0 °F14.0 °F48 %30.23 in10.0 miNE (50°)3.5 mphClear
8:55 AM32.0 °F12.2 °F44 %30.23 in10.0 miSW (230°)4.6 mphClear
9:15 AM33.8 °F12.2 °F41 %30.23 in10.0 miWSW (240°)5.8 mphClear
9:35 AM35.6 °F14.0 °F41 %30.23 in10.0 miSSW (200°)3.5 mphClear
9:55 AM37.4 °F14.0 °F38 %30.22 in10.0 miSW (220°)4.6 mphClear
10:15 AM37.4 °F14.0 °F38 %30.21 in10.0 miSouth (190°)3.5 mphClear
10:35 AM39.2 °F15.8 °F39 %30.21 in10.0 miCalmClear
10:55 AM41.0 °F15.8 °F36 %30.21 in10.0 miSouth (170°)4.6 mphClear
11:15 AM41.0 °F15.8 °F36 %30.21 in10.0 miSouth (170°)4.6 mphClear
11:35 AM42.8 °F15.8 °F34 %30.21 in10.0 miWSW (250°)3.5 mphClear
11:55 AM44.6 °F15.8 °F31 %30.20 in10.0 miSW (220°)4.6 mphClear
12:15 PM44.6 °F15.8 °F31 %30.19 in10.0 miSSW (210°)3.5 mphClear
12:35 PM46.4 °F14.0 °F27 %30.17 in10.0 miSSW (200°)3.5 mphClear
12:55 PM48.2 °F14.0 °F25 %30.15 in10.0 miSSW (210°)4.6 mphClear
1:15 PM48.2 °F10.4 °F22 %30.14 in10.0 miESE (110°)4.6 mphClear
1:35 PM48.2 °F10.4 °F22 %30.13 in10.0 miSSW (200°)4.6 mphClear
1:55 PM50.0 °F10.4 °F20 %30.13 in10.0 miNorth (360°)3.5 mphClear
2:15 PM50.0 °F12.2 °F22 %30.12 in10.0 miCalmClear
2:35 PM51.8 °F10.4 °F19 %30.12 in10.0 miSE (130°)3.5 mphScattered Clouds
2:55 PM51.8 °F10.4 °F19 %30.11 in10.0 miSW (230°)4.6 mphOvercast
3:15 PM51.8 °F12.2 °F21 %30.10 in10.0 miCalmOvercast
3:35 PM51.8 °F10.4 °F19 %30.09 in10.0 miNE (50°)3.5 mphOvercast
3:55 PM53.6 °F12.2 °F19 %30.09 in10.0 miCalmPartly Cloudy
4:15 PM53.6 °F10.4 °F18 %30.09 in10.0 miCalmClear
4:35 PM53.6 °F12.2 °F19 %30.08 in10.0 miSSW (200°)5.8 mphClear
4:55 PM53.6 °F15.8 °F22 %30.08 in10.0 miSW (220°)9.2 mphClear
5:15 PM50.0 °F23.0 °F35 %30.09 in10.0 miSW (230°)10.4 mphClear
5:35 PM48.2 °F24.8 °F40 %30.09 in10.0 miSW (230°)8.1 mphClear
5:55 PM48.2 °F24.8 °F40 %30.09 in10.0 miSSW (200°)8.1 mphClear
6:15 PM46.4 °F24.8 °F43 %30.07 in10.0 miSSE (160°)8.1 mphClear
6:35 PM46.4 °F23.0 °F40 %30.08 in10.0 miSouth (170°)3.5 mphClear
6:55 PM46.4 °F21.2 °F37 %30.08 in10.0 miSouth (180°)5.8 mphClear
7:15 PM46.4 °F19.4 °F34 %30.08 in10.0 miSE (140°)4.6 mphClear
7:35 PM46.4 °F17.6 °F32 %30.09 in10.0 miWSW (250°)10.4 mph16.1 mphClear
7:55 PM48.2 °F15.8 °F27 %30.07 in10.0 miWSW (250°)18.4 mph27.6 mphClear
8:15 PM48.2 °F10.4 °F22 %30.07 in10.0 miWest (270°)21.9 mph34.5 mphPartly Cloudy
8:35 PM48.2 °F10.4 °F22 %30.08 in10.0 miWSW (250°)15.0 mph28.8 mphClear
8:55 PM46.4 °F15.8 °F29 %30.09 in10.0 miWSW (250°)11.5 mph24.2 mphScattered Clouds
9:15 PM46.4 °F17.6 °F32 %30.07 in10.0 miSouth (190°)5.8 mphScattered Clouds
9:35 PM44.6 °F19.4 °F37 %30.06 in10.0 miWSW (240°)6.9 mphPartly Cloudy
9:55 PM46.4 °F15.8 °F29 %30.08 in10.0 miSW (230°)12.7 mph19.6 mphScattered Clouds
10:15 PM46.4 °F15.8 °F29 %30.08 in10.0 miWSW (240°)4.6 mphMostly Cloudy
10:35 PM46.4 °F19.4 °F34 %30.08 in10.0 miWNW (300°)5.8 mphOvercast
10:55 PM46.4 °F17.6 °F32 %30.08 in10.0 miSW (220°)3.5 mphOvercast
11:15 PM46.4 °F19.4 °F34 %30.07 in10.0 miSE (140°)4.6 mphOvercast
11:35 PM46.4 °F21.2 °F37 %30.08 in10.0 miSouth (190°)4.6 mphOvercast
11:55 PM46.4 °F19.4 °F34 %30.06 in10.0 miSW (220°)4.6 mphOvercast
Hourly data recorded from KCXP, located miles away from Carson City, Nevada







STORIES FROM OUR PARTNERS